Location: Wildcat Hills Observatory
(41.6350°N, 103.6812°W)
Time: 16:06:05
(UTC-06:00)

Daily predictions for brighter satellites

Satellite Brightness Start Highest point End
(mag) Time Altitude Azimuth Time Altitude Azimuth Time Altitude Azimuth
Cosmos 2034 Rocket 4.5 18:57:55 10° SSE 19:03:37 38° E 19:09:24 10° NNE
Cosmos 1464 Rocket 4.1 18:57:59 10° SSE 19:03:59 52° E 19:09:57 10° NNE
Cosmos 2333 Rocket 4.0 19:00:02 10° WSW 19:05:18 35° WNW 19:10:35 10° N
COSMOS 2441 4.5 19:02:43 10° SSE 19:07:34 86° WSW 19:12:26 10° NNW
SJ-6B 3.1 19:05:00 10° SSE 19:08:50 47° ENE 19:12:47 10° N
SKYMED 2 3.6 19:05:09 10° NNE 19:09:32 89° W 19:13:52 10° SSW
Cosmos 1408 Rocket 3.8 19:06:04 10° N 19:10:15 44° ENE 19:14:23 10° SSE
CZ-4C R/B 3.8 19:07:33 10° WSW 19:12:31 35° NW 19:18:05 10° NNE
CENTAUR R/B 3.5 19:12:44 10° SSE 19:17:18 23° ESE 19:22:14 10° ENE
ATLAS 5 CENTAUR R/B 1.8 19:13:44 10° SSW 19:18:29 79° ESE 19:23:39 10° NE
Cosmos 724 4.4 19:13:16 10° SSW 19:19:01 56° ESE 19:24:58 10° NE
Cosmos 1484 Rocket 3.3 19:15:34 10° S 19:19:22 66° W 19:23:17 10° NNW
Cosmos 192 4.4 19:15:52 10° SSW 19:20:49 90° WSW 19:25:49 10° NNE
Cosmos 1758 3.6 19:19:05 10° SSE 19:22:59 46° E 19:26:56 10° NNE
Cosmos 2237 Rocket 4.2 19:18:20 10° WSW 19:23:18 30° NW 19:28:17 10° N
ISS -2.3 19:22:22 10° SSW 19:25:14 29° SE 19:27:25 14° E
ALOS 3.3 19:21:36 10° ESE 19:25:22 25° ENE 19:29:10 10° NNE
Helios 1A 3.5 19:23:42 10° SE 19:27:34 37° ENE 19:31:29 10° N
NOSS 3-2 (C) 3.6 19:22:01 10° SW 19:28:06 83° NW 19:34:47 10° NE
Cosmos 1544 3.7 19:27:50 10° SSE 19:31:16 36° E 19:34:44 10° NNE
Spot 2 Rocket 3.6 19:26:29 10° SSE 19:31:21 52° ENE 19:36:15 10° N
Cosmos 1048 Rocket 4.5 19:29:32 10° SSE 19:34:25 38° ESE 19:39:15 10° NE
SAR-Lupe-4 4.1 19:33:53 10° S 19:37:24 61° W 19:40:58 10° NNW
Cosmos 1269 Rocket 4.2 19:32:27 10° S 19:37:30 48° ESE 19:42:34 10° NNE
Resurs 1-3 4.0 19:33:46 10° SE 19:37:55 43° ENE 19:42:04 10° N
SL-8 R/B 3.8 19:33:47 10° SW 19:38:29 59° SE 19:42:21 15° ENE
Cosmos 1743 Rocket 3.8 19:36:02 10° N 19:40:19 45° ENE 19:44:31 10° SSE
METEOR-M 4.1 19:35:27 10° SSE 19:40:46 73° ENE 19:46:07 10° N
HJ-1C 3.3 19:40:01 10° SSE 19:43:19 64° ENE 19:46:41 10° N
Resurs 01 Rocket 1.6 19:39:17 10° SSE 19:43:41 65° ENE 19:48:07 10° N
Meteor 1-21 Rocket 4.1 19:38:19 10° N 19:43:51 70° ENE 19:49:22 10° SSE
SL-16 R/B 3.4 19:39:25 10° SW 19:44:50 44° WNW 19:50:17 10° NNE
CZ-2D R/B 4.0 19:50:59 24° ESE 19:52:23 32° ENE 19:55:51 10° N
Cosmos 158 Rocket 4.5 19:48:26 10° SSE 19:52:42 31° E 19:56:59 10° NE
FREGAT/IRIS 3.7 19:52:52 10° S 19:55:50 47° W 19:58:51 10° NNW
FENGYUN 3A 3.8 19:51:53 10° SE 19:57:04 52° ENE 20:02:17 10° N
Meteor 1-28 Rocket 4.2 19:53:44 10° N 19:57:20 49° WNW 20:00:55 10° SSW
Abrixas 2.3 19:54:47 10° WSW 19:57:47 89° NW 19:58:48 38° ENE
Helios 1B rocket 2.3 19:55:59 10° NNE 20:00:08 85° ESE 20:04:15 10° SSW
USA 215 3.2 19:54:32 10° NE 20:01:02 64° SE 20:07:29 10° SW
H-2A R/B 3.1 20:03:24 34° ESE 20:04:29 43° ENE 20:08:10 10° N
CZ-4B DEB 2.9 20:05:05 45° ESE 20:05:42 53° ENE 20:08:53 10° N
Cosmos 1346 3.4 20:02:46 10° NNW 20:05:44 64° W 20:08:14 13° S
Elektron 1 3.8 20:03:25 10° SSW 20:06:15 53° SE 20:06:35 49° E
Cosmos 1805 4.3 20:03:42 10° SSW 20:07:31 49° W 20:11:21 10° N
GP-B 3.6 20:03:37 10° NNE 20:07:43 35° E 20:08:05 34° E
Nadezhda 4 Rocket 3.9 20:02:16 10° N 20:08:35 87° E 20:14:47 10° S
GPS 2-04 Rocket1 3.6 20:08:07 10° SW 20:11:08 27° S 20:11:14 27° SSE
ERS-1 Rocket 4.1 20:15:36 25° ENE 20:15:36 25° ENE 20:19:18 10° NNE
Meteor 1-29 3.2 20:11:51 10° N 20:15:21 70° WNW 20:18:49 10° SSW
Cosmos 1953 3.8 20:11:43 10° SSW 20:15:27 39° WNW 20:19:13 10° N
Cosmos 1092 Rocket 3.9 20:11:26 10° N 20:17:39 75° E 20:23:47 10° SSE
Gbstr 26 Del rocket 3.2 20:16:11 10° SW 20:20:34 63° SE 20:22:26 37° ENE
Cosmos 1943 Rocket 3.1 20:15:46 10° N 20:20:40 29° NE 20:21:09 29° ENE
Cosmos 1655 Rocket 4.3 20:18:11 10° N 20:24:04 43° ENE 20:25:30 37° ESE
Cosmos 2369 Rocket 2.1 20:19:13 10° NNW 20:24:52 69° ENE 20:27:10 37° SE
Cosmos 2058 4.3 20:21:58 10° N 20:24:08 25° NE 20:24:08 25° NE
Cosmos 2142 Rocket 4.5 20:19:32 10° S 20:25:47 62° E 20:32:06 10° NNE
Cosmos 1110 Rocket 4.4 20:20:45 10° N 20:25:49 43° ENE 20:26:25 42° E
Cosmos 1943 3.0 20:20:25 10° SSW 20:26:00 70° ESE 20:31:37 10° NNE
Cosmos 2151 3.0 20:24:53 10° N 20:28:44 54° ENE 20:28:44 54° ENE
Cosmos 2026 Rocket 4.0 20:23:45 10° N 20:29:43 52° ENE 20:31:32 40° SE
Cosmos 1733 3.1 20:25:51 10° S 20:29:43 88° W 20:33:37 10° N
Cosmos 1470 3.0 20:28:10 10° SSW 20:32:02 66° W 20:35:55 10° N
Cosmos 1634 Rocket 3.8 20:27:22 10° S 20:33:36 75° E 20:39:48 10° N
Cosmos 2263 4.3 20:28:45 10° NNW 20:34:29 60° ENE 20:35:42 49° ESE
OAO 3 Rocket 4.3 20:30:23 10° WSW 20:34:32 30° SSW 20:35:09 29° S
Cosmos 1674 3.7 20:35:28 10° NNW 20:39:12 47° W 20:41:20 23° SSW
ASTEX 1 3.8 20:38:49 10° N 20:43:40 62° W 20:48:28 10° SSW
Cosmos 2195 Rocket 4.4 20:45:30 10° N 20:51:52 88° E 20:54:42 36° S
BREEZE-M DEB (TANK) 3.2 20:46:18 10° WNW 20:56:48 67° N 20:57:17 63° NE
Cosmos 1331 Rocket 4.0 20:52:41 10° NNW 20:57:38 70° NE 20:57:38 70° NE
Meteor 2-1 Rocket 4.3 20:58:51 62° NE 20:58:51 62° NE 21:04:00 10° NNE
Cosmos 839 Rocket 4.2 20:50:54 10° NNW 20:58:29 80° WSW 21:00:24 49° SSE
ISS -0.8 20:58:36 10° W 21:00:07 22° W 21:00:07 22° W
ALOS 3.8 20:59:05 14° SSW 21:02:38 34° W 21:06:54 10° NNW
ATLAS 5 CENTAUR R/B 4.3 21:00:16 10° W 21:03:52 20° NW 21:07:41 10° NNE
Meteor 1-16 Rocket 4.1 21:04:28 45° SSW 21:06:05 76° W 21:11:26 10° N
CENTAUR R/B 2.9 21:01:10 10° SW 21:07:13 64° NW 21:14:05 10° NNE
Meteor 1-11 4.4 21:08:36 10° NNW 21:14:22 71° W 21:14:59 65° SW
SL-24 R/B - RUBIN 2 4.3 21:07:52 10° NNW 21:14:34 90° NE 21:14:42 87° SE
Envisat 3.9 21:22:48 43° N 21:22:48 43° N 21:26:10 10° NNW
USA 215 4.1 21:40:32 26° NNE 21:43:51 44° NNW 21:49:58 10° W
Cosmos 1943 Rocket 3.7 21:59:16 10° NW 22:02:42 32° WNW 22:02:42 32° WNW
Cosmos 2369 Rocket 4.5 22:04:49 10° WNW 22:08:15 17° W 22:08:59 16° WSW
